Location: Garos
(43.5000°N, 0.4667°W)
Time: 16:46:25
(UTC+00:00)

Lacrosse 5 rocket - Pass Details

Date: 03 February 2023
Orbit: 455 x 612 km, 57.0° (Epoch: 01 April)

Event Time Altitude Azimuth Distance (km) Brightness Sun altitude
Rises 19:29:50 0° 312° (NW) 2,492 5.4 -24.6°
Reaches altitude 10° 19:31:56 10° 312° (NW) 1,627 4.3 -24.9°
Enters shadow 19:34:10 36° 311° (NW) 772 2.4 -25.4°
